Regional Weather Roundup
Issued by NWS

Home | Current Version | Previous Version | Text Only | Print | Product List | Glossary Off
Versions: 1 2 3 4 5 6 7 8 9 10 11 12 13 14 15 16 17 18 19 20 21 22 23 24 25 26 27 28 29 30 31 32 33 34 35 36 37 38 39 40 41 42 43 44 45 46 47 48 49 50

963
ASUS43 KOAX 132202
RWRNE

WEATHER ROUNDUP FOR NEBRASKA
NATIONAL WEATHER SERVICE OMAHA NE
400 PM CST SAT FEB 13 2016

NOTES: SATELLITE DATA IS BEING USED TO AUGMENT CLOUD COVER ABOVE
       12000 FEET.
       "FAIR" INDICATES FEW OR NO CLOUDS BELOW 12,000 FEET WITH NO
       SIGNIFICANT WEATHER AND/OR OBSTRUCTIONS TO VISIBILITY.

  * THESE STATIONS DO NOT REPORT WEATHER SUCH AS RAIN...SNOW OR FOG.

NEZ001>004-019>022-054>056-132300-
NEBRASKA PANHANDLE

CITY           SKY/WX    TMP DP  RH WIND       PRES   REMARKS
SCOTTSBLUFF    CLOUDY    58  23  26 W21G26    29.84F
ALLIANCE       CLOUDY    43  33  68 S7        29.84F
CHADRON        CLOUDY    62  32  32 SW12      29.75F
SIDNEY         CLOUDY    46  37  71 S10       29.89F
$$

NEZ057>060-069>072-079>082-132300-
SOUTHWEST NEBRASKA

CITY           SKY/WX    TMP DP  RH WIND       PRES   REMARKS
NORTH PLATTE   CLOUDY    24  20  84 S16G23    30.02F WCI  11
IMPERIAL       CLOUDY    30  27  88 S13       29.98F WCI  20
MCCOOK         CLOUDY    28  22  78 S12       30.08F HAZE    WCI  18
$$

NEZ005>010-023>029-035>040-094-132300-
NORTH CENTRAL NEBRASKA

CITY           SKY/WX    TMP DP  RH WIND       PRES   REMARKS
VALENTINE      CLOUDY    28  23  81 S23G29    29.93F WCI  14
AINSWORTH      CLOUDY    26  20  77 S21       29.99R WCI  12
BROKEN BOW     CLOUDY    22  17  81 S20       30.08F WCI   7
ORD            CLOUDY    23  10  57 S17G26    30.12F WCI   9
$$

NEZ041-046>049-061>064-073>077-083>087-132300-
SOUTH CENTRAL NEBRASKA

CITY           SKY/WX    TMP DP  RH WIND       PRES   REMARKS
GRAND ISLAND   CLOUDY    20   8  60 SE18      30.18F WCI   5
HASTINGS       CLOUDY    22   6  50 S13       30.17F WCI  10
KEARNEY *      CLOUDY    21  10  63 S15       30.15F WCI   8
$$

NEZ011>018-030>034-042>045-132300-
NORTHEAST NEBRASKA

CITY           SKY/WX    TMP DP  RH WIND       PRES   REMARKS
NORFOLK        CLOUDY    18   8  65 SE14      30.22F WCI   4
COLUMBUS *     CLOUDY    19   1  45 SE14      30.25F WCI   6
TEKAMAH        CLOUDY    16   6  65 SE16      30.35F WCI   1
$$

NEZ050>053-065>068-078-088>093-132300-
SOUTHEAST NEBRASKA

CITY           SKY/WX    TMP DP  RH WIND       PRES   REMARKS
LINCOLN        CLOUDY    20   5  52 SE14      30.30F WCI   7
OMAHA EPPLEY   CLOUDY    19   3  49 SE17      30.36F WCI   4
BEATRICE       CLOUDY    22   3  45 SE14      30.27F WCI   9
FALLS CITY     CLOUDY    21   3  45 SE9       30.35F WCI  11
NEBRASKA CITY  CLOUDY    19   1  44 SE12G17   30.34F WCI   7
$$

NEZ044-045-051>053-067-132300-
OMAHA AREA

CITY           SKY/WX    TMP DP  RH WIND       PRES   REMARKS
OMAHA EPPLEY   CLOUDY    19   3  49 SE17      30.36F WCI   4
OFFUTT AFB     CLOUDY    19   2  48 E14       30.34F WCI   5
WAHOO          CLOUDY    19   7  61 SE16      30.29F WCI   4
$$




USA.gov is the U.S. government's official web portal to all federal, state and local government web resources and services.